Flag for Germany Past Weather in Limburg an der Lahn, Hesse, Germany — Yesterday and Last 2 Weeks

Now
61 °F

Scattered clouds.


Feels Like: 61 °F
Forecast: 49 / 68 °F
Wind: 8 mph from Northwest

Location: Hessen

Current Time: Jun 26, 2016 at 5:39:25 PM

Latest Report: Jun 26, 2016 at 4:50 PM


Visibility: N/A

Pressure: 30.07 "Hg

Humidity: 68%

Dew Point: 50 °F

Location of Limburg an der LahnLocation

Past Weather in Limburg an der Lahn — Graph

°F

Limburg an der Lahn Temperature Yesterday

Maximum temperature yesterday: 64 °F (at 1:20 PM)
Minimum temperature yesterday: 52 °F (at 4:50 PM)
Average temperature yesterday: 58 °F

High & Low Weather Summary for the Past Weeks

 TemperatureHumidityPressure
High84 °F (Jun 23, 3:20 PM)100% (Jun 12, 7:50 AM)30.27 "Hg (Jun 12, 7:50 AM)
Low48 °F (Jun 19, 7:20 AM)51% (Jun 23, 3:50 PM)29.53 "Hg (Jun 14, 1:20 PM)
Average60 °F85%29.93 "Hg
* Reported Jun 11 3:20 PM — Jun 26 3:50 PM, Limburg an der Lahn, Weather by CustomWeather, © 2016

Note: Actual official high and low records may vary slightly from our data, if they occured in-between our weather recording intervals... More about our weather records

Advertising

Limburg an der Lahn Weather History for the Previous 24 Hours

Scroll right to see more
 ConditionsComfort  
Time TempWeatherWind HumidityBarometerVisibility
3:50 PM
Sun, Jun 26
63 °FScattered clouds.15 mph59%30.07 "HgN/A
3:20 PM61 °FScattered clouds.14 mph68%30.07 "HgN/A
2:50 PM61 °FScattered clouds.13 mph63%30.07 "HgN/A
2:20 PM59 °FBroken clouds.10 mph68%30.07 "HgN/A
1:50 PM59 °FBroken clouds.12 mph63%30.07 "HgN/A
1:20 PM61 °FScattered clouds.13 mph68%30.09 "HgN/A
12:50 PM59 °FBroken clouds.12 mph68%30.09 "HgN/A
12:20 PM57 °FBroken clouds.12 mph72%30.09 "HgN/A
11:50 AM59 °FPartly sunny.10 mph72%30.09 "HgN/A
11:20 AM57 °FBroken clouds.12 mph63%30.07 "HgN/A
10:50 AM57 °FPartly sunny.10 mph72%30.09 "HgN/A
10:20 AM55 °FScattered clouds.9 mph77%30.09 "HgN/A
9:50 AM54 °FScattered clouds.9 mph82%30.09 "HgN/A
9:20 AM54 °FScattered clouds.8 mph82%30.09 "HgN/A
8:50 AM54 °FBroken clouds.8 mph82%30.07 "HgN/A
8:20 AM52 °FPartly sunny.7 mph100%30.07 "Hg5 mi
7:50 AM52 °FPartly sunny.7 mph100%30.07 "Hg4 mi
8:50 PM
Sat, Jun 25
54 °FCool.13 mph100%30.01 "Hg1 mi
8:20 PM54 °FDrizzle. Fog.15 mph100%29.98 "Hg1 mi
7:50 PM54 °FBroken clouds.14 mph100%29.98 "Hg4 mi
7:20 PM54 °FLight rain. Broken clouds.16 mph100%29.98 "Hg2 mi
6:50 PM54 °FLight rain. Fog.16 mph100%29.98 "Hg0 mi
6:20 PM54 °FCool.18 mph100%29.95 "Hg1 mi
5:50 PM54 °FLight rain. Broken clouds.20 mph100%29.98 "Hg1 mi
5:20 PM54 °FLight rain. Fog.21 mph100%29.98 "Hg0 mi
Weather by CustomWeather, © 2016

See weather overviewHow to use our weather pages